This is the latest recevied weather packets stored in our database for station/object K7FLA. If no packets are shown the sender has not sent any weather packets the latest 10 day(s).
| Time | Temp. | Humidity | Pressure | Rain* | Wind** | Luminosity | Snow |
|---|---|---|---|---|---|---|---|
| 1777492356 | 26.67° C | 24% | 1095.4 hPa | 0 mm | - | 842 W/m² | - |
| 1777492053 | 26.67° C | 26% | 1095.5 hPa | 0 mm | - | 843 W/m² | - |
| 1777491750 | 26.67° C | 28% | 1095.6 hPa | 0 mm | - | 842 W/m² | - |
| 1777491448 | 26.67° C | 25% | 1095.7 hPa | 0 mm | - | 845 W/m² | - |
| 1777491145 | 26.67° C | 27% | 1095.6 hPa | 0 mm | - | 843 W/m² | - |
| 1777490840 | 26.67° C | 26% | 1095.9 hPa | 0 mm | - | 843 W/m² | - |
| 1777490536 | 26.67° C | 25% | 1095.7 hPa | 0 mm | - | 842 W/m² | - |
| 1777490233 | 26.67° C | 28% | 1095.9 hPa | 0 mm | - | 842 W/m² | - |
| 1777489930 | 26.67° C | 27% | 1095.9 hPa | 0 mm | - | 842 W/m² | - |
| 1777489628 | 26.67° C | 29% | 1096.1 hPa | 0 mm | - | 841 W/m² | - |
| 1777489324 | 26.67° C | 28% | 1096 hPa | 0 mm | - | 837 W/m² | - |
| 1777489021 | 26.67° C | 29% | 1096.2 hPa | 0 mm | - | 833 W/m² | - |
| 1777488718 | 26.11° C | 28% | 1096.4 hPa | 0 mm | - | 828 W/m² | - |
| 1777488416 | 26.11° C | 26% | 1096.3 hPa | 0 mm | - | 825 W/m² | - |
| 1777488114 | 26.11° C | 28% | 1096.2 hPa | 0 mm | - | 818 W/m² | - |
| 1777487812 | 26.67° C | 25% | 1096.3 hPa | 0 mm | - | 815 W/m² | - |
| 1777487509 | 26.67° C | 28% | 1096.5 hPa | 0 mm | - | 803 W/m² | - |
| 1777487206 | 26.67° C | 28% | 1096.5 hPa | 0 mm | - | 803 W/m² | - |
| 1777486902 | 26.67° C | 29% | 1096.4 hPa | 0 mm | - | 796 W/m² | - |
| 1777486599 | 26.67° C | 28% | 1096.6 hPa | 0 mm | - | 789 W/m² | - |
| 1777486297 | 26.67° C | 27% | 1096.5 hPa | 0 mm | - | 783 W/m² | - |
| 1777485994 | 26.67° C | 30% | 1096.7 hPa | 0 mm | - | 775 W/m² | - |
| 1777485691 | 26.67° C | 29% | 1096.8 hPa | 0 mm | - | 767 W/m² | - |
| 1777485386 | 26.11° C | 31% | 1096.7 hPa | 0 mm | - | 758 W/m² | - |
| 1777485082 | 26.11° C | 30% | 1096.8 hPa | 0 mm | - | 751 W/m² | - |
* Rain latest hour (hover to see other rain measurements)
** Current wind speed in m/s (hover to see current wind gust speed)